Location: *
(49.3500°N, 12.6000°E)
Time: 02:29:39
(UTC+00:00)

Cosmos 2278 Rocket - Pass Details

Date: 18 October 2019
Orbit: 840 x 847 km, 71.0° (Epoch: 14 November)

Event Time Altitude Azimuth Distance (km) Brightness Sun altitude
Rises 17:38:30 0° 192° (SSW) 3,391 5.5 -14.5°
Reaches altitude 10° 17:40:58 10° 188° (S) 2,461 4.7 -14.9°
Maximum altitude 17:46:28 55° 111° (ESE) 1,012 2.3 -15.8°
Drops below altitude 10° 17:52:00 10° 36° (NE) 2,480 4.3 -16.7°
Sets 17:54:30 0° 32° (NNE) 3,420 5.1 -17.1°
